TimeCDT,TemperatureF,Dew PointF,Humidity,Sea Level PressureIn,VisibilityMPH,Wind Direction,Wind SpeedMPH,Gust SpeedMPH,PrecipitationIn,Events,Conditions,WindDirDegrees,DateUTC
12:11 AM,26.6,26.6,100,30.21,10.0,Calm,Calm,-,N/A,,Overcast,0,2013-04-23 05:11:00
12:32 AM,26.6,26.6,100,30.21,10.0,Calm,Calm,-,N/A,,Overcast,0,2013-04-23 05:32:00
12:52 AM,28.4,28.4,100,30.20,10.0,NNW,3.5,-,N/A,,Overcast,330,2013-04-23 05:52:00
1:11 AM,28.4,28.4,100,30.20,10.0,Calm,Calm,-,N/A,,Mostly Cloudy,0,2013-04-23 06:11:00
1:32 AM,28.4,28.4,100,30.19,10.0,North,3.5,-,N/A,,Mostly Cloudy,360,2013-04-23 06:32:00
1:51 AM,28.4,28.4,100,30.19,10.0,Calm,Calm,-,N/A,,Overcast,0,2013-04-23 06:51:00
2:12 AM,28.4,28.4,100,30.18,10.0,North,6.9,-,N/A,,Overcast,360,2013-04-23 07:12:00
2:31 AM,28.4,28.4,100,30.18,10.0,Calm,Calm,-,N/A,,Overcast,0,2013-04-23 07:31:00
2:51 AM,28.4,28.4,100,30.18,10.0,Calm,Calm,-,N/A,,Overcast,0,2013-04-23 07:51:00
3:12 AM,28.4,28.4,100,30.18,10.0,Calm,Calm,-,N/A,,Overcast,0,2013-04-23 08:12:00
3:32 AM,28.4,28.4,100,30.18,10.0,Calm,Calm,-,N/A,,Overcast,0,2013-04-23 08:32:00
3:51 AM,28.4,28.4,100,30.18,10.0,Calm,Calm,-,N/A,,Overcast,0,2013-04-23 08:51:00
4:11 AM,28.4,28.4,100,30.17,10.0,Calm,Calm,-,N/A,,Overcast,0,2013-04-23 09:11:00
4:31 AM,26.6,26.6,100,30.17,10.0,Calm,Calm,-,N/A,,Overcast,0,2013-04-23 09:31:00
5:12 AM,24.8,24.8,100,30.17,10.0,Calm,Calm,-,N/A,,Overcast,0,2013-04-23 10:12:00
5:31 AM,24.8,24.8,100,30.16,10.0,NW,3.5,-,N/A,,Mostly Cloudy,320,2013-04-23 10:31:00
5:51 AM,23.0,21.2,93,30.15,10.0,Calm,Calm,-,N/A,,Mostly Cloudy,0,2013-04-23 10:51:00
6:11 AM,21.2,19.4,93,30.15,10.0,Calm,Calm,-,N/A,,Overcast,0,2013-04-23 11:11:00
6:32 AM,19.4,17.6,93,30.15,10.0,Calm,Calm,-,N/A,,Overcast,0,2013-04-23 11:32:00
6:51 AM,19.4,17.6,93,30.15,10.0,Calm,Calm,-,N/A,,Overcast,0,2013-04-23 11:51:00
7:11 AM,19.4,19.4,100,30.15,10.0,Calm,Calm,-,N/A,,Mostly Cloudy,0,2013-04-23 12:11:00
7:31 AM,23.0,21.2,93,30.15,10.0,Calm,Calm,-,N/A,,Scattered Clouds,0,2013-04-23 12:31:00
7:51 AM,24.8,24.8,100,30.16,10.0,NNW,3.5,-,N/A,,Clear,340,2013-04-23 12:51:00
8:11 AM,26.6,26.6,100,30.15,10.0,NNW,4.6,-,N/A,,Clear,340,2013-04-23 13:11:00
8:31 AM,30.2,28.4,93,30.16,10.0,NW,4.6,-,N/A,,Unknown,320,2013-04-23 13:31:00
8:51 AM,32.0,30.2,93,30.15,10.0,North,6.9,-,N/A,,Clear,350,2013-04-23 13:51:00
9:11 AM,33.8,33.8,100,30.15,10.0,North,5.8,-,N/A,,Clear,10,2013-04-23 14:11:00
9:31 AM,33.8,33.8,100,30.14,10.0,North,6.9,-,N/A,,Clear,360,2013-04-23 14:31:00
9:51 AM,35.6,35.6,100,30.14,10.0,North,4.6,-,N/A,,Clear,360,2013-04-23 14:51:00
10:11 AM,35.6,35.6,100,30.13,10.0,North,5.8,-,N/A,,Clear,350,2013-04-23 15:11:00
10:31 AM,37.4,35.6,93,30.12,10.0,North,8.1,16.1,N/A,,Scattered Clouds,360,2013-04-23 15:31:00
10:51 AM,37.4,37.4,100,30.12,10.0,NNW,10.4,18.4,N/A,,Mostly Cloudy,330,2013-04-23 15:51:00
11:11 AM,35.6,33.8,93,30.12,10.0,NW,10.4,17.3,N/A,,Scattered Clouds,320,2013-04-23 16:11:00
11:31 AM,35.6,33.8,93,30.11,10.0,NNW,10.4,16.1,N/A,,Clear,330,2013-04-23 16:31:00
11:51 AM,37.4,33.8,87,30.10,10.0,North,8.1,-,N/A,,Clear,10,2013-04-23 16:51:00
12:11 PM,37.4,30.2,75,30.09,10.0,NNW,3.5,-,N/A,,Clear,330,2013-04-23 17:11:00
12:31 PM,39.2,23.0,52,30.09,10.0,North,6.9,-,N/A,,Scattered Clouds,350,2013-04-23 17:31:00
12:52 PM,39.2,19.4,45,30.08,10.0,NW,4.6,17.3,N/A,,Scattered Clouds,310,2013-04-23 17:52:00
1:11 PM,41.0,19.4,42,30.07,10.0,NW,4.6,-,N/A,,Clear,320,2013-04-23 18:11:00
1:31 PM,41.0,17.6,39,30.06,10.0,NW,8.1,-,N/A,,Scattered Clouds,320,2013-04-23 18:31:00
1:51 PM,42.8,15.8,34,30.06,10.0,NNW,10.4,19.6,N/A,,Clear,330,2013-04-23 18:51:00
2:11 PM,41.0,15.8,36,30.06,10.0,WNW,3.5,-,N/A,,Scattered Clouds,290,2013-04-23 19:11:00
2:31 PM,42.8,15.8,34,30.05,10.0,NNW,6.9,-,N/A,,Clear,330,2013-04-23 19:31:00
2:51 PM,42.8,14.0,31,30.04,10.0,NW,5.8,-,N/A,,Clear,320,2013-04-23 19:51:00
3:11 PM,42.8,12.2,29,30.04,10.0,NNW,5.8,17.3,N/A,,Clear,330,2013-04-23 20:11:00
3:31 PM,42.8,14.0,31,30.04,10.0,NNW,8.1,-,N/A,,Clear,330,2013-04-23 20:31:00
3:51 PM,42.8,12.2,29,30.03,10.0,NNW,5.8,-,N/A,,Clear,340,2013-04-23 20:51:00
4:11 PM,42.8,12.2,29,30.03,10.0,NW,5.8,-,N/A,,Clear,320,2013-04-23 21:11:00
4:32 PM,42.8,10.4,27,30.02,10.0,NNW,5.8,-,N/A,,Clear,340,2013-04-23 21:32:00
4:52 PM,42.8,12.2,29,30.02,10.0,NW,5.8,-,N/A,,Clear,320,2013-04-23 21:52:00
5:11 PM,42.8,12.2,29,30.02,10.0,NNW,6.9,-,N/A,,Clear,330,2013-04-23 22:11:00
5:31 PM,42.8,12.2,29,30.01,10.0,NNW,3.5,-,N/A,,Clear,330,2013-04-23 22:31:00
5:51 PM,42.8,12.2,29,30.01,10.0,North,8.1,-,N/A,,Clear,360,2013-04-23 22:51:00
6:11 PM,41.0,12.2,31,30.01,10.0,NW,6.9,-,N/A,,Clear,320,2013-04-23 23:11:00
6:31 PM,41.0,12.2,31,30.01,10.0,NW,3.5,-,N/A,,Clear,320,2013-04-23 23:31:00
6:51 PM,39.2,12.2,33,30.00,10.0,NNW,4.6,-,N/A,,Clear,330,2013-04-23 23:51:00
7:11 PM,39.2,12.2,33,30.00,10.0,Calm,Calm,-,N/A,,Clear,0,2013-04-24 00:11:00
7:32 PM,37.4,12.2,36,30.00,10.0,NNW,3.5,-,N/A,,Clear,330,2013-04-24 00:32:00
7:51 PM,33.8,10.4,38,30.00,10.0,Calm,Calm,-,N/A,,Clear,0,2013-04-24 00:51:00
8:11 PM,30.2,10.4,44,30.00,10.0,Calm,Calm,-,N/A,,Clear,0,2013-04-24 01:11:00
8:32 PM,26.6,10.4,51,30.00,10.0,Calm,Calm,-,N/A,,Clear,0,2013-04-24 01:32:00
8:51 PM,24.8,10.4,54,30.01,10.0,Calm,Calm,-,N/A,,Clear,0,2013-04-24 01:51:00
9:11 PM,23.0,12.2,63,30.01,10.0,Calm,Calm,-,N/A,,Clear,0,2013-04-24 02:11:00
9:32 PM,23.0,12.2,63,30.00,10.0,Calm,Calm,-,N/A,,Clear,0,2013-04-24 02:32:00
9:51 PM,21.2,12.2,68,30.00,10.0,Calm,Calm,-,N/A,,Clear,0,2013-04-24 02:51:00
10:11 PM,21.2,14.0,74,30.00,10.0,Calm,Calm,-,N/A,,Clear,0,2013-04-24 03:11:00
10:31 PM,19.4,12.2,74,29.99,10.0,Calm,Calm,-,N/A,,Clear,0,2013-04-24 03:31:00
10:52 PM,19.4,14.0,80,29.99,10.0,Calm,Calm,-,N/A,,Clear,0,2013-04-24 03:52:00
11:11 PM,21.2,15.8,80,29.99,10.0,Calm,Calm,-,N/A,,Clear,0,2013-04-24 04:11:00
11:31 PM,19.4,15.8,86,29.99,10.0,Calm,Calm,-,N/A,,Clear,0,2013-04-24 04:31:00
11:51 PM,19.4,15.8,86,29.98,10.0,Calm,Calm,-,N/A,,Clear,0,2013-04-24 04:51:00